Preview of NWS' New Version of Forecast
This preview is not operational and should not be used for support decisions.

Regional Weather Roundup (RWR)

Issued by National Weather Service (NWS)

                            
000
ASUS46 KPQR 191410
RWROR 

OREGON REGIONAL WEATHER ROUNDUP
NATIONAL WEATHER SERVICE PORTLAND OR
700 AM PDT FRI APR 19 2019

NOTE: "FAIR" INDICATES FEW OR NO CLOUDS BELOW 12,000 FEET WITH
NO SIGNIFICANT WEATHER AND/OR OBSTRUCTIONS TO VISIBILITY.

ORZ001>013-191500-
NORTHWEST OREGON

  
CITY           SKY/WX    TMP DP  RH WIND       PRES   REMARKS
ASTORIA        LGT RAIN  52  50  93 CALM      30.02F FOG              
TILLAMOOK      MOCLDY    52  52 100 CALM      30.04F FOG              
NEWPORT        FOG       52  52 100 N3        30.06F VSB 3/4          
PORTLAND       MOCLDY    55  51  86 W3        30.02S                  
VANCOUVER WA   MOCLDY    55  51  86 W3        30.02S                  
SCAPPOOSE      CLOUDY    58  52  80 N6        30.01S                  
HILLSBORO      CLOUDY    53  50  89 CALM      30.01S                  
AURORA         CLOUDY    56  51  84 CALM      30.03R                  
MCMINNVILLE    PTCLDY    51  49  92 NW5       30.01S                  
SALEM          CLEAR     51  49  92 CALM      30.01R                  
CORVALLIS      CLEAR     53  51  93 W5        30.03S                  
EUGENE         PTCLDY    48  46  93 CALM      30.02S                  
$$

ORZ021-028-191500-
SOUTHWEST OREGON

  
CITY           SKY/WX    TMP DP  RH WIND       PRES   REMARKS
NORTH BEND     CLOUDY    54  52  93 N8        30.06F                  
BROOKINGS      FOG       51  51 100 CALM      30.04S VSB 1            
ROSEBURG       CLEAR     52  48  86 CALM      30.02R                  
SEXTON SUMMIT  PTCLDY    50  46  86 N7        30.04S                  
GRANTS PASS    MOCLDY    52  48  87 CALM      30.03R                  
MEDFORD        CLEAR     52  47  83 CALM      30.00S                  
$$

ORZ014>016-041-191500-
COLUMBIA GORGE

  
CITY           SKY/WX    TMP DP  RH WIND       PRES   REMARKS
TROUTDALE      CLOUDY    56  51  84 W5        30.02R                  
HOOD RIVER     PTCLDY    54  50  87 MISG      29.97S                  
THE DALLES     PTCLDY    58  50  75 NW10      29.95R                  
$$

ORZ029>031-041-044-049-050-061>064-502-503-505>511-191500-
EASTERN OREGON

  
CITY           SKY/WX    TMP DP  RH WIND       PRES   REMARKS
MADRAS         PTCLDY    46  45  93 SE7       30.02S                  
REDMOND        CLEAR     47  42  83 CALM      30.02S                  
BEND           CLEAR     52  45  76 VRB6G15   30.02S                  
PRINEVILLE     CLEAR     43  41  93 CALM      30.03S                  
KLAMATH FALLS  CLEAR     37  35  92 CALM      30.07S                  
LAKEVIEW       CLEAR     37  36  96 NW5       30.12S                  
HERMISTON      CLEAR     53  49  86 E3        29.93S                  
PENDLETON      CLEAR     55  47  74 SE9       29.95S                  
MEACHAM        CLEAR     37  33  85 CALM      30.02S                  
LA GRANDE      MOCLDY    51  42  71 NW5       30.02S                  
BAKER CITY     CLEAR     43  40  89 CALM      30.05F                  
BURNS          CLEAR     43  39  86 CALM      30.08R                  
ROME             N/A     48  40  73 S6        30.07F                  
ONTARIO        SUNNY     47  42  83 CALM      30.08S                  
$$